Tracking 27124 objects as of 31-Mar-2023
HD Live streaming from Space Station
objects crossing your sky now

STARLINK-3203

Track STARLINK-3203 now!
10-day predictions
STARLINK-3203 is classified as:


NORAD ID: 49761
Int'l Code: 2021-115AP
Perigee: 546.0 km
Apogee: 547.7 km
Inclination: 53.2 °
Period: 95.4 minutes
Semi major axis: 6917 km
RCS: Unknown
Launch date: December 2, 2021
Source: United States (US)
Launch site: AIR FORCE EASTERN TEST RANGE (AFETR)
Your satellite tracking list
Your tracking list is empty




NASA's NSSDC Master Catalog

Two Line Element Set (TLE):
1 49761U 21115AP  23089.74688507  .00020702  00000-0  13148-2 0  9994
2 49761  53.2158 284.7222 0001206  87.0391 273.0740 15.08845766 73392
Source of the keplerian elements: AFSPC